Location: Unspecified
(38.0989°N, 0.6729°W)
Time: 01:57:55
(UTC+02:00)

Amateur Radio Satellites - All Passes

Search period start: 23 June 2017 01:27
Search period end: 24 June 2017 01:27
Location: Unspecified, 38.0989°N, 0.6729°W

Satellite Date Start Highest point End Downlink Frequencies (MHz)
Time Altitude Azimuth
ESTCUBE 1 23 Jun 01:33:15 01:37:07 28° 264° (W) 01:40:59 437.505/2401.250
LO-87 23 Jun 01:35:25 01:36:11 11° 268° (W) 01:36:57 145.935 - 145.965
NO-84 23 Jun 01:44:41 01:47:40 19° 333° (NNW) 01:50:46 435.350 FM
SO-50 23 Jun 01:46:55 01:51:25 72° 242° (WSW) 01:55:58 436.795
50 SAT 23 Jun 01:48:04 01:51:15 40° 74° (ENE) 01:54:26 437.505
VELOX 1 23 Jun 01:48:55 01:53:17 80° 256° (WSW) 01:57:42 145.980
POLYITAN 1 23 Jun 01:49:06 01:53:23 71° 102° (ESE) 01:57:38 437.675
QB50P2 23 Jun 01:59:43 02:04:01 79° 283° (WNW) 02:08:16 145.880/145.840
YUBILEINY 23 Jun 02:06:36 02:11:25 15° 298° (WNW) 02:16:15 435.215
DX 1 23 Jun 02:19:30 02:23:48 72° 75° (ENE) 02:28:06 434.975-435.025
EO-79 23 Jun 02:25:40 02:29:44 42° 287° (WNW) 02:33:45 145.935-145.965
BUGSAT 1 23 Jun 02:31:51 02:35:59 49° 100° (E) 02:40:05 437.445
SPROUT 23 Jun 02:36:55 02:40:09 21° 265° (W) 02:43:24 437.525
UKube-1 23 Jun 02:43:34 02:47:52 90° 302° (WNW) 02:52:10 .
DUCHIFAT 1 23 Jun 02:43:57 02:47:46 33° 289° (WNW) 02:51:34 145.980
Oscar 19 23 Jun 02:49:46 02:54:08 28° 96° (E) 02:58:28 437.125/150
NANOSAT C BR1 23 Jun 02:50:52 02:54:22 25° 291° (WNW) 02:57:51 145.865
BEESAT 23 Jun 02:56:23 02:58:08 12° 62° (ENE) 02:59:53 436.000
RS-15 23 Jun 02:59:43 03:07:57 19° 347° (NNW) 03:16:09 29.354- 29.394
Gurwin Techsat 1B 23 Jun 03:16:21 03:21:05 31° 97° (E) 03:25:46 435.225
AO-7 23 Jun 03:53:41 03:56:55 12° 89° (E) 04:00:07 .
BUGSAT 1 23 Jun 04:08:44 04:10:53 14° 295° (WNW) 04:13:01 437.445
ITUPSAT 1 23 Jun 04:18:12 04:22:59 82° 77° (ENE) 04:27:50 437.325
Oscar 19 23 Jun 04:28:55 04:33:24 32° 291° (WNW) 04:37:53 437.125/150
MOZHAYETS 4 23 Jun 04:30:08 04:34:44 68° 75° (ENE) 04:39:22
BEESAT 23 Jun 04:30:29 04:35:15 73° 257° (WSW) 04:40:03 436.000
KKS-1 23 Jun 04:53:10 04:55:35 15° 64° (ENE) 04:58:00 437.445
Gurwin Techsat 1B 23 Jun 04:56:20 05:00:55 30° 292° (WNW) 05:05:29 435.225
ITAMSAT 1 23 Jun 04:58:53 05:03:43 37° 98° (E) 05:08:32 435.822/435.867
CUBESAT XI-V 23 Jun 05:03:14 05:07:07 27° 69° (ENE) 05:11:00 437.345
NO-84 23 Jun 05:05:12 05:06:14 11° 15° (NNE) 05:07:16 435.350 FM
RS-15 23 Jun 05:17:47 05:27:00 23° 24° (NNE) 05:35:55 29.354- 29.394
STARS 23 Jun 05:31:46 05:34:25 16° 65° (ENE) 05:37:04 437.465
AO-7 23 Jun 05:42:25 05:50:51 76° 106° (ESE) 05:59:12 .
MOZHAYETS 4 23 Jun 06:11:20 06:12:18 11° 270° (W) 06:13:17
KKS-1 23 Jun 06:27:24 06:31:41 49° 260° (W) 06:36:00 437.445
ITAMSAT 1 23 Jun 06:38:44 06:42:58 26° 294° (WNW) 06:47:12 435.822/435.867
CUBESAT XI-V 23 Jun 06:40:26 06:44:23 27° 264° (W) 06:48:20 437.345
NO-84 23 Jun 06:41:05 06:45:01 31° 35° (NE) 06:48:51 435.350 FM
XW-2C 23 Jun 07:06:11 07:07:11 11° 91° (E) 07:08:09 145.795 - 145.815
STARS 23 Jun 07:06:12 07:10:22 44° 261° (W) 07:14:34 437.465
CUTE-I 23 Jun 07:19:46 07:23:31 19° 93° (E) 07:27:13 437.470
AO-85 23 Jun 07:22:07 07:26:07 47° 56° (NE) 07:30:22 145.980
KAITUO 1B 23 Jun 07:27:07 07:29:22 15° 93° (E) 07:31:37 145.475/437.950
RS-15 23 Jun 07:30:39 07:42:44 62° 53° (NE) 07:54:09 29.354- 29.394
DOVE 4 23 Jun 07:32:48 07:37:38 65° 101° (E) 07:42:43 437.250
STRAND 1 23 Jun 07:36:21 07:40:06 21° 65° (ENE) 07:43:52 437.568
AO-7 23 Jun 07:36:28 07:42:46 24° 304° (NW) 07:49:03 .
BEESAT 3 23 Jun 07:38:12 07:41:56 35° 54° (NE) 07:45:36 437.485
NUDT-PHONESAT 23 Jun 08:06:16 08:09:53 49° 100° (E) 08:13:27 437.300
XW-2F 23 Jun 08:11:51 08:15:37 79° 102° (ESE) 08:19:20 145.980 - 146.000
XW-2D 23 Jun 08:13:36 08:17:22 89° 329° (NNW) 08:21:07 145.860 - 145.880
LilacSat-2 23 Jun 08:18:00 08:21:48 76° 284° (WNW) 08:25:33 437.200
NO-84 23 Jun 08:18:40 08:22:40 37° 233° (SW) 08:26:28 435.350 FM
XW-2B 23 Jun 08:22:30 08:26:17 71° 284° (WNW) 08:30:00 145.730 - 145.750
BEESAT 2 23 Jun 08:29:51 08:33:46 45° 55° (NE) 08:37:38 435.950
O/OREOS (USA 219) 23 Jun 08:31:46 08:35:01 19° 59° (ENE) 08:38:16 437.305
XW-2C 23 Jun 08:37:59 08:41:35 43° 286° (WNW) 08:45:08 145.795 - 145.815
CUTE-I 23 Jun 08:58:36 09:03:48 50° 288° (WNW) 09:08:58 437.470
KAITUO 1B 23 Jun 09:00:10 09:03:25 29° 288° (WNW) 09:06:38 145.475/437.950
HO-68 23 Jun 09:03:09 09:10:05 48° 100° (E) 09:16:55 435.675
AO-85 23 Jun 09:03:47 09:06:11 15° 249° (WSW) 09:08:40 145.980
DOVE 4 23 Jun 09:12:22 09:14:49 14° 295° (WNW) 09:17:20 437.250
STRAND 1 23 Jun 09:14:03 09:18:55 44° 261° (W) 09:23:51 437.568
BEESAT 3 23 Jun 09:16:32 09:19:13 17° 250° (WSW) 09:21:51 437.485
CUBEBUG 2 23 Jun 09:18:37 09:22:55 34° 96° (E) 09:27:07 437.445
FO-29 23 Jun 09:24:36 09:27:13 13° 55° (NE) 09:29:56 435.910
SEEDS 23 Jun 09:27:27 09:31:31 52° 100° (E) 09:35:34 437.485
AO-73 23 Jun 09:29:32 09:31:11 12° 90° (E) 09:32:49 145.935
CUTE 1.7 + AOD 2 23 Jun 09:38:57 09:43:09 68° 283° (WNW) 09:47:18 437.475
RS-15 23 Jun 09:44:01 09:54:29 38° 255° (WSW) 10:04:33 29.354- 29.394
XW-2A 23 Jun 09:44:09 09:47:33 68° 284° (WNW) 09:50:55 145.665 - 145.685
M-CUBED/EXP-1 PRIME 23 Jun 09:48:37 09:51:15 22° 66° (ENE) 09:53:49 437.505
UWE-3 23 Jun 09:58:35 10:03:08 55° 100° (E) 10:07:32 435.000/436.395/437.385
Oscar 11 23 Jun 09:59:01 10:02:11 20° 94° (E) 10:05:19 .
ZACube-1 23 Jun 10:00:45 10:04:45 31° 96° (E) 10:08:38 437.345
BEESAT 2 23 Jun 10:08:57 10:11:06 14° 251° (WSW) 10:13:15 435.950
O/OREOS (USA 219) 23 Jun 10:10:25 10:14:33 37° 255° (WSW) 10:18:38 437.305
ISS 23 Jun 10:15:07 10:18:03 31° 134° (SE) 10:21:01 437.550
YUBILEINY 23 Jun 10:16:55 10:25:22 47° 76° (ENE) 10:33:43 435.215
AAUSAT CUBESAT 2 23 Jun 10:27:34 10:31:39 65° 285° (WNW) 10:35:42 437.432
Tancredo 1 23 Jun 10:31:03 10:34:03 73° 320° (NW) 10:37:06 437.200
TIGRISAT 23 Jun 10:35:37 10:39:31 28° 69° (ENE) 10:43:29 435.000
DELFI C3 23 Jun 10:47:22 10:49:53 16° 93° (E) 10:52:24 145.870
HO-68 23 Jun 10:51:22 10:57:28 31° 297° (WNW) 11:03:34 435.675
CUBEBUG 2 23 Jun 10:55:38 10:59:17 23° 292° (WNW) 11:02:53 437.445
EO-88 23 Jun 10:56:45 10:58:23 13° 92° (E) 11:00:00 145.990 - 145.960
AO-73 23 Jun 11:03:23 11:07:46 55° 286° (WNW) 11:12:00 145.935
SEEDS 23 Jun 11:05:05 11:06:43 12° 295° (WNW) 11:08:22 437.485
FO-29 23 Jun 11:05:10 11:10:59 83° 74° (ENE) 11:17:39 435.910
UNISAT 6 23 Jun 11:16:04 11:20:37 86° 74° (ENE) 11:25:18 437.425
PRISM 23 Jun 11:21:00 11:25:02 75° 257° (WSW) 11:29:06 437.425
M-CUBED/EXP-1 PRIME 23 Jun 11:23:27 11:25:40 16° 259° (W) 11:27:51 437.505
Oscar 11 23 Jun 11:34:31 11:38:20 32° 289° (WNW) 11:42:09 .
UWE-3 23 Jun 11:36:39 11:39:02 14° 296° (WNW) 11:41:24 435.000/436.395/437.385
ZACube-1 23 Jun 11:37:21 11:40:48 22° 292° (WNW) 11:44:11 437.345
AIST 2D 23 Jun 11:44:28 11:46:44 16° 69° (ENE) 11:49:02 435.315
ISS 23 Jun 11:51:42 11:54:33 27° 330° (NNW) 11:57:25 437.550
DUCHIFAT 1 23 Jun 12:00:41 12:02:13 12° 64° (ENE) 12:03:47 145.980
NANOSAT C BR1 23 Jun 12:06:29 12:09:02 16° 66° (ENE) 12:11:34 145.865
Tancredo 1 23 Jun 12:08:41 12:10:07 13° 339° (NNW) 12:11:34 437.200
TIGRISAT 23 Jun 12:12:21 12:16:08 25° 265° (W) 12:19:59 435.000
YUBILEINY 23 Jun 12:14:07 12:21:52 36° 275° (W) 12:29:35 435.215
DELFI C3 23 Jun 12:21:12 12:24:43 32° 288° (WNW) 12:28:13 145.870
EO-88 23 Jun 12:28:51 12:32:11 34° 287° (WNW) 12:35:29 145.990 - 145.960
POLYITAN 1 23 Jun 12:39:44 12:43:42 41° 72° (ENE) 12:47:44 437.675
QB50P2 23 Jun 12:50:09 12:54:20 60° 75° (ENE) 12:58:33 145.880/145.840
FO-29 23 Jun 12:54:34 12:57:03 13° 275° (W) 12:59:40 435.910
LO-87 23 Jun 13:00:40 13:04:17 64° 100° (E) 13:07:53 145.935 - 145.965
EO-79 23 Jun 13:15:40 13:19:54 74° 258° (WSW) 13:24:10 145.935-145.965
AIST 2D 23 Jun 13:16:43 13:19:43 26° 264° (W) 13:22:45 435.315
BUGSAT 1 23 Jun 13:20:03 13:23:29 27° 70° (ENE) 13:26:59 437.445
PCSat 23 Jun 13:23:00 13:27:54 37° 110° (ESE) 13:32:51 145.827
ESTCUBE 1 23 Jun 13:26:24 13:30:53 67° 101° (ESE) 13:35:19 437.505/2401.250
DUCHIFAT 1 23 Jun 13:33:13 13:37:22 57° 260° (W) 13:41:33 145.980
NANOSAT C BR1 23 Jun 13:40:22 13:44:21 41° 261° (W) 13:48:24 145.865
VELOX 1 23 Jun 13:41:08 13:44:31 21° 95° (E) 13:47:53 145.980
Oscar 19 23 Jun 14:04:52 14:09:31 35° 69° (ENE) 14:14:10 437.125/150
DX 1 23 Jun 14:10:46 14:13:04 14° 93° (E) 14:15:20 434.975-435.025
POLYITAN 1 23 Jun 14:17:09 14:19:40 15° 268° (W) 14:22:10 437.675
SPROUT 23 Jun 14:22:47 14:27:06 73° 101° (E) 14:31:23 437.525
QB50P2 23 Jun 14:30:03 14:30:28 10° 270° (W) 14:30:54 145.880/145.840
UKube-1 23 Jun 14:33:15 14:36:01 17° 94° (E) 14:38:47 .
Gurwin Techsat 1B 23 Jun 14:35:41 14:40:39 43° 71° (ENE) 14:45:40 435.225
50 SAT 23 Jun 14:44:25 14:47:46 53° 100° (E) 14:51:06 437.505
AO-7 23 Jun 14:50:34 14:55:56 19° 52° (NE) 15:01:18 .
BUGSAT 1 23 Jun 14:55:35 14:58:47 22° 265° (W) 15:02:03 437.445
ESTCUBE 1 23 Jun 15:05:44 15:07:04 11° 297° (WNW) 15:08:25 437.505/2401.250
PCSat 23 Jun 15:06:36 15:11:19 30° 307° (NW) 15:16:05 145.827
VELOX 1 23 Jun 15:17:03 15:20:58 31° 290° (WNW) 15:24:52 145.980
Tancredo 1 23 Jun 15:22:30 15:23:41 12° 20° (NNE) 15:24:54 437.200
Oscar 19 23 Jun 15:44:38 15:48:51 25° 265° (W) 15:53:05 437.125/150
JUGNU 23 Jun 15:44:45 15:45:59 11° 171° (S) 15:47:14 437.505
DX 1 23 Jun 15:45:16 15:49:27 46° 288° (WNW) 15:53:37 434.975-435.025
SO-50 23 Jun 15:59:17 16:03:43 53° 117° (ESE) 16:08:09 436.795
UKube-1 23 Jun 16:08:09 16:12:10 38° 289° (WNW) 16:16:10 .
ITAMSAT 1 23 Jun 16:15:05 16:20:03 48° 71° (ENE) 16:25:04 435.822/435.867
Gurwin Techsat 1B 23 Jun 16:16:45 16:20:45 22° 266° (W) 16:24:47 435.225
ITUPSAT 1 23 Jun 16:20:59 16:24:49 23° 95° (E) 16:28:37 437.325
MOZHAYETS 4 23 Jun 16:27:53 16:30:58 18° 93° (E) 16:34:01
BEESAT 23 Jun 16:32:29 16:36:45 31° 97° (E) 16:40:58 436.000
AO-7 23 Jun 16:39:12 16:47:31 87° 71° (ENE) 16:55:55 .
ISS 23 Jun 16:44:20 16:47:09 26° 30° (NNE) 16:49:59 437.550
Tancredo 1 23 Jun 16:56:47 16:59:49 61° 38° (NE) 17:02:49 437.200
JUGNU 23 Jun 17:31:35 17:34:07 13° 181° (S) 17:36:38 437.505
SO-50 23 Jun 17:41:20 17:44:29 18° 314° (NW) 17:47:38 436.795
ITAMSAT 1 23 Jun 17:56:10 17:59:45 19° 267° (W) 18:03:21 435.822/435.867
ITUPSAT 1 23 Jun 17:58:22 18:02:39 33° 291° (WNW) 18:06:55 437.325
MOZHAYETS 4 23 Jun 18:03:58 18:08:16 40° 288° (WNW) 18:12:31
BEESAT 23 Jun 18:10:28 18:14:21 25° 293° (WNW) 18:18:13 436.000
KKS-1 23 Jun 18:19:53 18:23:57 33° 98° (E) 18:28:00 437.445
ISS 23 Jun 18:20:38 18:23:40 34° 226° (SW) 18:26:41 437.550
Tancredo 1 23 Jun 18:34:28 18:35:01 10° 232° (SW) 18:35:34 437.200
AO-7 23 Jun 18:36:05 18:41:10 17° 268° (W) 18:46:18 .
DOVE 4 23 Jun 18:37:10 18:41:08 48° 74° (ENE) 18:45:12 437.250
CUBESAT XI-V 23 Jun 18:37:35 18:42:12 82° 104° (ESE) 18:46:47 437.345
CUTE-I 23 Jun 18:39:47 18:44:11 27° 67° (ENE) 18:48:36 437.470
NUDT-PHONESAT 23 Jun 18:44:32 18:47:09 18° 69° (ENE) 18:49:47 437.300
XW-2F 23 Jun 18:51:06 18:54:23 28° 72° (ENE) 18:57:41 145.980 - 146.000
XW-2D 23 Jun 18:53:03 18:56:29 32° 73° (ENE) 18:59:56 145.860 - 145.880
STARS 23 Jun 18:56:57 19:01:02 35° 98° (E) 19:05:06 437.465
LilacSat-2 23 Jun 18:57:55 19:01:31 38° 73° (ENE) 19:05:08 437.200
XW-2B 23 Jun 19:01:47 19:05:23 39° 73° (ENE) 19:09:00 145.730 - 145.750
SRMSAT 23 Jun 19:11:58 19:14:07 12° 175° (S) 19:16:17 437.500
XW-2C 23 Jun 19:16:53 19:20:42 65° 76° (ENE) 19:24:31 145.795 - 145.815
HO-68 23 Jun 19:30:28 19:36:33 31° 63° (ENE) 19:42:40 435.675
KAITUO 1B 23 Jun 19:37:31 19:41:19 88° 257° (WSW) 19:45:07 145.475/437.950
KKS-1 23 Jun 19:56:55 20:00:16 21° 293° (WNW) 20:03:37 437.445
XW-2A 23 Jun 20:13:50 20:16:44 26° 72° (ENE) 20:19:41 145.665 - 145.685
CUBEBUG 2 23 Jun 20:15:06 20:18:43 24° 68° (ENE) 20:22:24 437.445
SEEDS 23 Jun 20:17:29 20:21:07 29° 71° (ENE) 20:24:44 437.485
NUDT-PHONESAT 23 Jun 20:17:39 20:20:51 26° 264° (W) 20:24:04 437.300
DOVE 4 23 Jun 20:17:45 20:19:10 11° 269° (W) 20:20:35 437.250
CUTE-I 23 Jun 20:19:12 20:24:02 36° 262° (W) 20:28:56 437.470
XW-2F 23 Jun 20:25:55 20:28:31 17° 266° (W) 20:31:08 145.980 - 146.000
XW-2D 23 Jun 20:28:26 20:30:44 15° 267° (W) 20:33:03 145.860 - 145.880
CUTE 1.7 + AOD 2 23 Jun 20:29:22 20:33:35 65° 76° (ENE) 20:37:48 437.475
STARS 23 Jun 20:33:55 20:37:06 20° 293° (WNW) 20:40:18 437.465
LilacSat-2 23 Jun 20:34:05 20:35:56 13° 268° (W) 20:37:48 437.200
XW-2B 23 Jun 20:38:05 20:39:44 12° 268° (W) 20:41:23 145.730 - 145.750
Oscar 11 23 Jun 20:53:17 20:55:23 13° 65° (ENE) 20:57:28 .
UWE-3 23 Jun 20:53:29 20:57:38 36° 71° (ENE) 21:01:52 435.000/436.395/437.385
ZACube-1 23 Jun 20:54:58 20:58:23 21° 68° (ENE) 21:01:50 437.345
SRMSAT 23 Jun 21:00:24 21:02:23 12° 186° (S) 21:04:24 437.500
AAUSAT CUBESAT 2 23 Jun 21:15:28 21:19:32 62° 76° (ENE) 21:23:37 437.432
HO-68 23 Jun 21:17:02 21:23:57 49° 260° (W) 21:30:54 435.675
STRAND 1 23 Jun 21:25:50 21:31:00 71° 102° (ESE) 21:36:08 437.568
AO-85 23 Jun 21:36:02 21:39:11 21° 113° (ESE) 21:42:14 145.980
XW-2A 23 Jun 21:47:33 21:49:30 14° 267° (W) 21:51:27 145.665 - 145.685
RS-15 23 Jun 21:50:57 22:02:07 46° 108° (ESE) 22:13:31 29.354- 29.394
CUBEBUG 2 23 Jun 21:51:06 21:55:08 31° 264° (W) 21:59:16 437.445
SEEDS 23 Jun 21:53:35 21:56:46 21° 266° (W) 21:59:58 437.485
AO-73 23 Jun 21:56:12 22:00:43 89° 77° (ENE) 22:05:20 145.935
PCSat 23 Jun 22:12:35 22:16:51 23° 50° (NE) 22:21:07 145.827
FO-29 23 Jun 22:17:34 22:22:07 16° 88° (E) 22:26:36 435.910
BEESAT 2 23 Jun 22:22:04 22:23:17 11° 108° (ESE) 22:24:30 435.950
Oscar 11 23 Jun 22:26:48 22:31:02 52° 260° (W) 22:35:17 .
ZACube-1 23 Jun 22:30:17 22:34:24 34° 263° (W) 22:38:35 437.345
UWE-3 23 Jun 22:30:49 22:34:09 20° 267° (W) 22:37:33 435.000/436.395/437.385
O/OREOS (USA 219) 23 Jun 22:41:58 22:45:53 29° 103° (ESE) 22:49:48 437.305
M-CUBED/EXP-1 PRIME 23 Jun 23:01:20 23:04:24 24° 103° (ESE) 23:07:37 437.505
BEESAT 3 23 Jun 23:03:01 23:06:58 74° 301° (WNW) 23:10:59 437.485
DELFI C3 23 Jun 23:04:05 23:08:00 75° 258° (WSW) 23:11:55 145.870
EO-88 23 Jun 23:04:10 23:07:49 70° 76° (ENE) 23:11:30 145.990 - 145.960
PRISM 23 Jun 23:04:53 23:07:28 16° 94° (E) 23:10:03 437.425
STRAND 1 23 Jun 23:07:02 23:09:32 14° 298° (WNW) 23:12:02 437.568
UNISAT 6 23 Jun 23:10:14 23:13:46 21° 94° (E) 23:17:14 437.425
YUBILEINY 23 Jun 23:15:17 23:23:47 57° 90° (E) 23:32:20 435.215
AO-85 23 Jun 23:15:48 23:19:24 29° 307° (NW) 23:22:54 145.980
NO-84 23 Jun 23:33:13 23:37:03 64° 132° (SE) 23:41:13 435.350 FM
LO-87 23 Jun 23:35:48 23:38:22 19° 70° (ENE) 23:40:57 145.935 - 145.965
PCSat 23 Jun 23:55:17 00:00:32 51° 248° (WSW) 00:05:44 145.827
BEESAT 2 23 Jun 23:56:37 00:00:31 55° 304° (WNW) 00:04:29 435.950
FO-29 24 Jun 00:00:03 00:07:55 88° 104° (ESE) 00:15:43 435.910
RS-15 24 Jun 00:02:33 00:14:24 55° 310° (NW) 00:26:31 29.354- 29.394
TIGRISAT 24 Jun 00:04:29 00:09:11 77° 102° (ESE) 00:13:44 435.000
O/OREOS (USA 219) 24 Jun 00:21:30 00:25:14 25° 299° (WNW) 00:28:59 437.305
ESTCUBE 1 24 Jun 00:24:00 00:28:20 49° 73° (ENE) 00:32:41 437.505/2401.250
SO-50 24 Jun 00:32:11 00:36:12 31° 51° (NE) 00:40:14 436.795
M-CUBED/EXP-1 PRIME 24 Jun 00:35:49 00:38:43 22° 294° (WNW) 00:41:47 437.505
VELOX 1 24 Jun 00:37:29 00:40:10 16° 66° (ENE) 00:42:51 145.980
QB50P2 24 Jun 00:39:03 00:40:16 11° 91° (E) 00:41:28 145.880/145.840
PRISM 24 Jun 00:39:05 00:42:50 35° 288° (WNW) 00:46:35 437.425
AIST 2D 24 Jun 00:43:14 00:46:04 23° 96° (E) 00:48:52 435.315
UNISAT 6 24 Jun 00:46:17 00:50:30 35° 290° (WNW) 00:54:39 437.425
EO-79 24 Jun 01:02:42 01:05:51 20° 94° (E) 01:08:58 145.935-145.965
DX 1 24 Jun 01:06:30 01:07:19 10° 63° (ENE) 01:08:08 434.975-435.025
LO-87 24 Jun 01:08:52 01:11:39 22° 264° (W) 01:14:28 145.935 - 145.965
NO-84 24 Jun 01:11:49 01:15:01 21° 331° (NNW) 01:18:20 435.350 FM
SPROUT 24 Jun 01:14:13 01:18:14 42° 73° (ENE) 01:22:17 437.525
50 SAT 24 Jun 01:15:51 01:17:47 15° 68° (ENE) 01:19:43 437.505
DUCHIFAT 1 24 Jun 01:19:11 01:22:41 24° 96° (E) 01:26:07 145.980
